Location: Hoover
(45.1124°N, 103.2678°W)
Time: 11:21:23
(UTC+00:00)

N. Korean satellite - Pass Details

Date: 28 November 2020
Orbit: 453 x 502 km, 97.2° (Epoch: 19 January)

Event Time Altitude Azimuth Distance (km) Brightness Sun altitude
Rises 00:22:34 0° 201° (SSW) 2,452 10.7 -11.8°
Reaches altitude 10° 00:25:02 10° 220° (SW) 1,588 10.1 -12.2°
Maximum altitude 00:27:30 19° 267° (W) 1,163 9.6 -12.7°
Drops below altitude 10° 00:30:00 10° 313° (NW) 1,607 9.6 -13.1°
Sets 00:32:31 0° 333° (NNW) 2,495 10.3 -13.5°
